Home > Weather > Boston > Past weeks

Flag for USA Past Weather in Boston, Massachusetts, USA — Yesterday and Last 2 Weeks

Now
84 °F

High level clouds.


Feels Like: 83 °F
Forecast: 64 / 87 °F
Wind: 10 mph from Southwest

Location: Logan International Airport

Current Time: Aug 24, 2016 at 7:34:58 PM

Latest Report: Aug 24, 2016 at 6:54 PM


Visibility: 10 mi

Pressure: 30.13 "Hg

Humidity: 41%

Dew Point: 58 °F

Location of BostonLocation

Past Weather in Boston — Graph

°F

Boston Temperature Yesterday

Maximum temperature yesterday: 81 °F (at 2:54 PM)
Minimum temperature yesterday: 61 °F (at 4:54 AM)
Average temperature yesterday: 72 °F

High & Low Weather Summary for the Past Weeks

 TemperatureHumidityPressure
High97 °F (Aug 12, 2:54 PM)100% (Aug 11, 3:54 AM)30.27 "Hg (Aug 11, 3:54 AM)
Low61 °F (Aug 23, 4:54 AM)29% (Aug 23, 2:54 PM)29.72 "Hg (Aug 22, 3:54 AM)
Average77 °F68%29.99 "Hg
* Reported Aug 9 5:54 PM — Aug 24 5:54 PM, Boston, Weather by CustomWeather, © 2016

Note: Actual official high and low records may vary slightly from our data, if they occured in-between our weather recording intervals... More about our weather records

Advertising

Boston Weather History for the Previous 24 Hours

Scroll right to see more
 ConditionsComfort  
Time TempWeatherWind HumidityBarometerVisibility
5:54 PM
Wed, Aug 24
77 °FScattered clouds.6 mph64%30.13 "Hg10 mi
4:54 PM78 °FScattered clouds.12 mph62%30.14 "Hg10 mi
3:54 PM80 °FPassing clouds.14 mph52%30.14 "Hg10 mi
2:54 PM81 °FPassing clouds.12 mph51%30.16 "Hg10 mi
1:54 PM87 °FPassing clouds.9 mph37%30.18 "Hg10 mi
12:54 PM84 °FPassing clouds.6 mph40%30.19 "Hg10 mi
11:54 AM81 °FPassing clouds.7 mph47%30.21 "Hg10 mi
10:54 AM79 °FPassing clouds.6 mph48%30.23 "Hg10 mi
9:54 AM78 °FPassing clouds.7 mph50%30.24 "Hg10 mi
8:54 AM74 °FPassing clouds.8 mph57%30.25 "Hg10 mi
7:54 AM71 °FPassing clouds.7 mph63%30.25 "Hg10 mi
6:54 AM67 °FPassing clouds.3 mph73%30.24 "Hg10 mi
5:54 AM65 °FPassing clouds.7 mph78%30.23 "Hg10 mi
4:54 AM65 °FClear.6 mph78%30.22 "Hg10 mi
3:54 AM66 °FClear.9 mph73%30.22 "Hg10 mi
2:54 AM67 °FClear.9 mph71%30.23 "Hg10 mi
1:54 AM68 °FClear.8 mph68%30.23 "Hg10 mi
12:54 AM68 °FClear.7 mph68%30.24 "Hg10 mi
11:54 PM
Tue, Aug 23
70 °FClear.7 mph64%30.24 "Hg10 mi
10:54 PM71 °FClear.10 mph57%30.23 "Hg10 mi
9:54 PM74 °FClear.9 mph50%30.22 "Hg10 mi
8:54 PM75 °FClear.9 mph47%30.21 "Hg10 mi
7:54 PM77 °FPassing clouds.10 mph42%30.19 "Hg10 mi
Weather by CustomWeather, © 2016

See weather overviewHow to use our weather pages